Tracking 19831 objects as of 23-Aug-2019
HD Live streaming from Space Station
objects crossing your sky now

OPS 3151

Track OPS 3151 now!
OPS 3151 is classified as:


NORAD ID: 9803
Int'l Code: 1977-007A
Perigee: 36,226.8 km
Apogee: 36,933.1 km
Inclination: 10.8 °
Period: 1,476.5 minutes
Semi major axis: 42950 km
RCS: Unknown
Launch date: February 6, 1977
Source: United States (US)
Launch site: AIR FORCE EASTERN TEST RANGE (AFETR)
aabbcc
Your satellite tracking list
Your tracking list is empty




NASA's NSSDC Master Catalog

Two Line Element Set (TLE):
1  9803U 77007A   19234.49548691 -.00000164  00000-0  00000+0 0  9997
2  9803  10.7702 310.4743 0082212 335.5647  24.1042  0.97531240   362
Source of the keplerian elements: McCants